Location: Unspecified
(0.0000°N, 0.0000°E)
Time: 03:03:57
(UTC+00:00)

Hubble Space Telescope - Visible Passes

Search period start: 19 April 2015 00:00
Search period end: 29 April 2015 00:00
Orbit: 543 x 546 km, 28.5° (Epoch: 18 April)

Date Brightness Start Highest point End Pass type
(mag) Time Alt. Az. Time Alt. Az. Time Alt. Az.
21 Apr 3.1 19:24:49 10° SSW 19:25:36 13° S 19:25:36 13° S visible
22 Apr 2.3 19:15:43 10° SSW 19:18:11 22° S 19:18:11 22° S visible
23 Apr 1.5 19:06:48 10° SW 19:10:34 33° SSE 19:10:53 32° SE visible
24 Apr 1.0 18:58:03 10° SW 19:02:04 48° SSE 19:03:42 30° E visible
25 Apr 3.8 05:15:19 10° NNE 05:16:16 11° NNE 05:17:21 10° NE visible
25 Apr 0.7 18:49:24 10° SW 18:53:33 73° SSE 18:56:36 18° ENE visible
25 Apr 4.1 20:32:01 10° WNW 20:32:08 10° WNW 20:32:08 10° WNW visible
26 Apr 3.5 05:05:27 10° N 05:07:50 15° NNE 05:10:21 10° ENE visible
26 Apr 0.9 18:40:52 10° WSW 18:45:02 74° NNW 18:49:10 10° NE visible
26 Apr 3.9 20:24:30 10° NW 20:25:03 11° NW 20:25:03 11° NW visible
27 Apr 3.1 04:56:13 10° NNW 04:59:22 21° NNE 05:02:36 10° E visible
27 Apr 1.7 18:32:27 10° WSW 18:36:29 49° NNW 18:40:31 10° NE visible
28 Apr 2.6 04:47:14 10° NNW 04:50:53 30° NNE 04:54:34 10° E visible
28 Apr 2.4 18:24:11 10° W 18:27:59 33° NNW 18:31:43 10° NE visible
